TIME,DELAY(SENSOR),PRES,OXYGEN,RAWTEMP,T(OPTODE),TCPHASE,FLUOR,BETA(BETA700),BETA(BETA412),BETA(BETA440),CDOM,C(CSC),ED(ED412.20),ED(ED444.00),ED(ED489.60),ED(ED554.30),LU(LU412.10),LU(LU443.90),LU(LU489.70),LU(LU554.70),COMP,TILTX,TILTY,CHECK
1347332908,5810,907.5000000000000000,33.0595703125000000,558.1572875976562000,4.5429921150207520,56.5796318054199200,55,100,101,79,83,15558,0,0,0,0,2147125238,2147769581,2147571830,2147572845,675,3,13,57331
1347336504,5810,974.1300048828125000,38.0128707885742200,563.4445800781250000,4.3790931701660160,55.8497085571289060,55,99,100,78,82,15550,0,0,0,0,2147124507,2147775588,2147574226,2147569490,3240,3,13,28909
1347340104,5811,993.7500000000000000,38.8992309570312500,564.3229980468750000,4.3518409729003910,55.7191505432128900,55,102,100,78,83,15548,0,0,0,0,2147122825,2147774089,2147572196,2147572598,98,3,13,59164
1347343704,5808,996.3099975585938000,38.5004310607910160,564.7913208007812000,4.3373088836669920,55.7890396118164060,55,97,102,78,81,15543,0,0,0,0,2147121645,2147774994,2147573577,2147566893,221,3,13,33457
1347347304,5810,997.0399780273438000,39.0071411132812500,566.0620117187500000,4.2978711128234860,55.7235412597656250,55,98,101,78,84,15548,0,0,0,0,2147126464,2147772041,2147572251,2147572260,2766,3,13,9676
1347350904,5808,1000.4199829101562000,39.2741584777832000,566.1793823242188000,4.2942261695861820,55.6819114685058600,55,98,100,77,84,15550,0,0,0,0,2147124800,2147777088,2147575561,2147569764,6,3,13,7101
1347354504,5809,1003.0200195312500000,39.7303695678710940,566.1903076171875000,4.2938880920410160,55.6167602539062500,55,98,100,78,82,15547,0,0,0,0,2147127067,2147775232,2147571565,2147568722,3594,3,13,30377
1347358104,5813,1002.2899780273438000,38.9594383239746100,566.2149047851562000,4.2931251525878910,55.7299880981445300,55,99,100,78,83,15550,0,0,0,0,2147128521,2147773723,2147576155,2147569371,306,3,13,47246
1347361704,5811,998.9199829101562000,39.2571792602539060,566.2321166992188000,4.2925891876220700,55.6897392272949200,55,98,101,78,82,15541,0,0,0,0,2147121334,2147767414,2147580041,2147573558,184,3,13,50557
1347365304,5810,997.4099731445312000,39.3812217712402340,566.4014282226562000,4.2873358726501465,55.6681900024414060,54,99,101,78,82,15541,0,0,0,0,2147123611,2147772077,2147570093,2147572306,3594,3,13,53649
1347368904,5807,1004.9199829101562000,39.7886581420898440,566.6099853515625000,4.2808589935302730,55.6129798889160160,55,97,100,79,83,15540,0,0,0,0,2147123145,2147775213,2147574500,2147568155,3470,3,13,60750
1347372504,5809,1012.6099853515625000,38.6514205932617200,566.0283203125000000,4.2989177703857420,55.7739982604980500,55,98,99,78,82,15541,0,0,0,0,2147124132,2147776758,2147569142,2147569170,3584,3,13,16288
1347376104,5810,1009.7999877929688000,38.1844291687011700,565.8530273437500000,4.3043580055236820,55.8496704101562500,57,99,100,77,84,15538,0,0,0,0,2147125696,2147771584,2147571675,2147569590,1,3,13,49178
1347379704,5814,1013.4899902343750000,38.8489608764648440,566.1171875000000000,4.2961559295654300,55.7487411499023440,54,99,99,78,83,15538,0,0,0,0,2147123364,2147767570,2147575515,2147570322,3366,3,13,47127
1347383304,5811,1017.2899780273438000,38.6484794616699200,566.0150146484375000,4.2993321418762210,55.7793006896972660,56,98,101,77,84,15538,0,0,0,0,2147123657,2147773403,2147575990,2147568914,3362,3,13,56734
1347386904,5808,1006.5200195312500000,38.7663002014160160,566.7055053710938000,4.2778930664062500,55.7649803161621100,56,98,101,80,82,15537,0,0,0,0,2147126857,2147769856,2147572690,2147569792,306,3,13,21315
1347390504,5809,1017.7600097656250000,39.2147789001464840,565.9984130859375000,4.2998471260070800,55.6940498352050800,56,98,101,79,84,15536,0,0,0,0,2147122697,2147772864,2147571062,2147568950,3355,3,13,55018
1347394104,5810,1006.9799804687500000,38.2857093811035160,566.4503784179688000,4.2858119010925290,55.8371696472168000,55,98,101,78,83,15536,0,0,0,0,2147125202,2147769526,2147576420,2147571346,534,3,13,46442
1347397704,5808,1007.7100219726562000,39.0229301452636700,567.9412231445312000,4.2395210266113280,55.7379608154296900,54,98,102,78,82,15539,0,0,0,0,2147122514,2147771053,2147577005,2147570624,3358,3,13,62408
1347401304,5809,1009.8400268554688000,39.3897895812988300,566.6740112304688000,4.2788701057434080,55.6723594665527340,56,99,101,77,83,15533,0,0,0,0,2147122752,2147777728,2147572233,2147573632,101,3,13,21482
1347404904,5812,1014.7500000000000000,39.4327087402343750,566.1892700195312000,4.2939190864562990,55.6613998413085940,55,99,101,79,82,15534,0,0,0,0,2147120804,2147772233,2147572224,2147570011,13,3,13,12372
1347408504,5808,1009.8499755859375000,38.4411392211914060,566.5554199218750000,4.2825531959533690,55.8155899047851560,55,98,101,78,81,15537,0,0,0,0,2147124333,2147772937,2147573202,2147571437,3179,3,13,20458
1347412104,5809,1018.9099731445312000,39.2506217956543000,566.2741699218750000,4.2912831306457520,55.6912384033203100,54,99,100,78,82,15534,0,0,0,0,2147119451,2147775469,2147574710,2147570852,138,3,13,11162
1347415704,5807,1015.5700073242188000,38.3426589965820300,566.4963989257812000,4.2843861579895020,55.8322410583496100,56,98,101,77,83,15534,0,0,0,0,2147122514,2147771721,2147571172,2147570368,416,3,13,25820
1347419304,5809,1012.0700073242188000,38.3371582031250000,566.6871948242188000,4.2784609794616700,55.8306999206543000,55,100,100,79,84,15535,0,0,0,0,2147120978,2147769014,2147570651,2147570441,115,3,13,48703
1347422904,5807,1012.9000244140625000,38.7163009643554700,567.3123168945312000,4.2590517997741700,55.7838096618652340,55,98,100,77,82,15535,0,0,0,0,2147122624,2147772260,2147570980,2147572333,407,3,13,29094
1347426504,5810,1012.7999877929688000,38.7209396362304700,567.5844726562500000,4.2505970001220700,55.7825889587402340,56,99,101,77,81,15534,0,0,0,0,2147126619,2147768731,2147574180,2147568868,162,3,13,57386
1347430104,5809,1015.3499755859375000,39.0871009826660160,566.7117919921875000,4.2776989936828610,55.7139892578125000,56,99,101,78,82,15536,0,0,0,0,2147124068,2147771355,2147572763,2147570605,503,3,13,20119
1347433704,5809,1014.8599853515625000,38.7252082824707000,567.0001220703125000,4.2687449455261230,55.7781600952148440,55,98,101,78,83,15532,0,0,0,0,2147123044,2147771739,2147573714,2147567680,458,3,13,17696
1347437304,5809,1013.9699707031250000,38.5431289672851560,566.7661743164062000,4.2760109901428220,55.8012809753418000,56,100,101,78,83,15531,0,0,0,0,2147123200,2147772745,2147573522,2147567698,463,3,13,13134
1347440904,5809,1015.0999755859375000,38.2730903625488300,567.9561157226562000,4.2390589714050290,55.8576507568359400,56,98,100,78,83,15532,0,0,0,0,2147122642,2147777033,2147573558,2147568722,154,3,13,27601
1347444504,5809,1015.1699829101562000,38.2901496887207000,567.9796142578125000,4.2383308410644530,55.8513488769531250,55,99,102,78,82,15535,0,0,0,0,2147123401,2147773952,2147574217,2147570797,220,3,13,40931
1347448104,5808,1020.9899902343750000,39.4882087707519500,566.6964111328125000,4.2781767845153810,55.6533699035644500,56,101,100,78,82,15533,0,0,0,0,2147124105,2147768521,2147575963,2147568521,3149,3,13,40498
1347451704,5809,1018.5700073242188000,39.0262985229492200,566.7822875976562000,4.2755088806152340,55.7279014587402340,55,99,101,78,82,15533,0,0,0,0,2147123017,2147772077,2147574509,2147570422,3444,3,13,21183
1347455304,5810,1016.9500122070312000,39.1770706176757800,566.4075927734375000,4.2871417999267580,55.6971092224121100,55,100,103,77,82,15534,0,0,0,0,2147121636,2147772306,2147573476,2147568941,3373,3,13,49537
1347458904,5808,1014.4299926757812000,38.8406181335449200,566.5811767578125000,4.2817540168762210,55.7510604858398440,54,101,102,78,81,15530,0,0,0,0,2147125129,2147772050,2147572717,2147569901,3392,3,13,40963
1347462504,5810,1018.1300048828125000,39.2989387512207000,566.6525268554688000,4.2795391082763670,55.6850509643554700,55,97,100,78,83,15530,0,0,0,0,2147121865,2147769216,2147571721,2147566281,3582,3,13,5554
1347466104,5810,1015.5399780273438000,38.9078407287597660,566.7321777343750000,4.2770628929138180,55.7454414367675800,56,99,101,78,82,15529,0,0,0,0,2147125522,2147769773,2147572946,2147571318,3247,3,13,9201
1347469704,5807,1020.7600097656250000,39.2018203735351560,566.9752807617188000,4.2695140838623050,55.7064514160156250,56,98,101,77,83,15530,0,0,0,0,2147123620,2147767707,2147574189,2147568768,101,3,13,7443
1347473304,5808,1019.9799804687500000,38.8925514221191400,566.7833251953125000,4.2754778861999510,55.7462806701660160,55,98,101,77,83,15531,0,0,0,0,2147124827,2147774198,2147569353,2147567350,280,3,13,8870
1347476904,5810,1016.5700073242188000,39.0980911254882800,566.7744750976562000,4.2757492065429690,55.7209281921386700,55,100,101,78,83,15528,0,0,0,0,2147125641,2147767222,2147573522,2147569042,3538,3,13,23332
1347477957,5809,1016.1699829101562000,38.9414710998535160,567.2332763671875000,4.2615032196044920,55.7440490722656250,55,100,100,79,82,15531,0,0,0,0,2147120292,2147772315,2147572516,2147571017,295,3,13,45294
